Location: Holyhead Bay
(53.3667°N, 4.6667°W)
Time: 18:49:31
(UTC+00:00)

H-2A R/B - Pass Details

Date: 24 November 2020
Orbit: 733 x 837 km, 98.2° (Epoch: 16 January)

Event Time Altitude Azimuth Distance (km) Brightness Sun altitude
Exits shadow 19:33:17 27° 193° (SSW) 1,515 3.5 -29.5°
Maximum altitude 19:36:03 55° 260° (W) 961 2.7 -29.9°
Drops below altitude 10° 19:41:10 10° 338° (NNW) 2,356 4.8 -30.7°
Sets 19:43:32 0° 343° (NNW) 3,272 5.6 -31.0°
